Tiempo cada hora Celestynow

Hoy, 20 Abril, Martes

Tiempo Temperatura Precipitaciones Viento Presión Humedad
00:00 +8°C° 0 mm 2 mps 751 mmHg 75%
01:00 +9°C° 0 mm 1 mps 750 mmHg 74%
02:00 +8°C° 0 mm 1 mps 750 mmHg 75%
03:00 +8°C° 0 mm 1 mps 750 mmHg 76%
04:00 +7°C° 0 mm 1 mps 750 mmHg 77%
05:00 +8°C° 0 mm 1 mps 750 mmHg 74%
06:00 +10°C° 0 mm 1 mps 750 mmHg 71%
07:00 +11°C° 0 mm 1 mps 750 mmHg 68%
08:00 +12°C° 0 mm 1 mps 750 mmHg 63%
09:00 +13°C° 0 mm 1 mps 750 mmHg 59%
10:00 +15°C° 0 mm 1 mps 750 mmHg 54%
11:00 +15°C° 0.1 mm 1 mps 750 mmHg 52%
12:00 +16°C° 0.1 mm 1 mps 749 mmHg 50%
13:00 +18°C° 0.1 mm 1 mps 749 mmHg 47%
14:00 +16°C° 0 mm 2 mps 749 mmHg 49%
15:00 +16°C° 0 mm 2 mps 748 mmHg 50%
16:00 +16°C° 0 mm 2 mps 748 mmHg 52%
17:00 +15°C° 0.1 mm 2 mps 748 mmHg 59%
18:00 +13°C° 0.1 mm 2 mps 748 mmHg 67%
19:00 +10°C° 0.1 mm 2 mps 748 mmHg 74%
20:00 +10°C° 0 mm 2 mps 748 mmHg 76%
21:00 +9°C° 0 mm 2 mps 748 mmHg 78%
22:00 +8°C° 0 mm 2 mps 748 mmHg 80%
23:00 +8°C° 0 mm 2 mps 748 mmHg 82%

Mañana, 21 Abril, Miércoles

Tiempo Temperatura Precipitaciones Viento Presión Humedad
00:00 +8°C° 0 mm 3 mps 748 mmHg 84%
01:00 +7°C° 0 mm 3 mps 748 mmHg 86%
02:00 +7°C° 0 mm 3 mps 748 mmHg 87%
03:00 +7°C° 0 mm 3 mps 747 mmHg 88%
04:00 +5°C° 0 mm 3 mps 747 mmHg 89%
05:00 +7°C° 0 mm 3 mps 748 mmHg 86%
06:00 +8°C° 0 mm 3 mps 748 mmHg 83%
07:00 +8°C° 0 mm 4 mps 748 mmHg 81%
08:00 +10°C° 0 mm 4 mps 748 mmHg 74%
09:00 +11°C° 0 mm 4 mps 748 mmHg 68%
10:00 +13°C° 0 mm 4 mps 748 mmHg 61%
11:00 +14°C° 0.1 mm 5 mps 748 mmHg 56%
12:00 +14°C° 0.1 mm 5 mps 748 mmHg 51%
13:00 +15°C° 0.1 mm 5 mps 747 mmHg 46%
14:00 +15°C° 0 mm 5 mps 747 mmHg 45%
15:00 +15°C° 0 mm 4 mps 747 mmHg 45%
16:00 +15°C° 0 mm 4 mps 747 mmHg 45%
17:00 +13°C° 0 mm 4 mps 747 mmHg 51%
18:00 +12°C° 0 mm 3 mps 747 mmHg 56%
19:00 +11°C° 0 mm 3 mps 747 mmHg 62%
20:00 +10°C° 0 mm 4 mps 747 mmHg 69%
21:00 +8°C° 0 mm 4 mps 747 mmHg 75%
22:00 +7°C° 0 mm 5 mps 747 mmHg 81%
23:00 +7°C° 0.1 mm 5 mps 748 mmHg 81%

Pasado mañana, 22 Abril, Jueves

Tiempo Temperatura Precipitaciones Viento Presión Humedad
00:00 +6°C° 0.1 mm 4 mps 748 mmHg 81%
01:00 +6°C° 0.1 mm 4 mps 748 mmHg 81%
02:00 +5°C° 0 mm 4 mps 748 mmHg 81%
03:00 +2°C° 0 mm 5 mps 749 mmHg 81%
04:00 +1°C° 0 mm 5 mps 749 mmHg 81%
05:00 +1°C° 0 mm 5 mps 749 mmHg 78%
06:00 +1°C° 0 mm 6 mps 749 mmHg 75%
07:00 0°C° 0 mm 7 mps 750 mmHg 72%
08:00 +2°C° 0 mm 7 mps 750 mmHg 69%
09:00 +2°C° 0 mm 7 mps 750 mmHg 66%
10:00 +3°C° 0 mm 7 mps 750 mmHg 64%
11:00 +3°C° 0 mm 7 mps 750 mmHg 63%
12:00 +3°C° 0 mm 7 mps 751 mmHg 63%
13:00 +4°C° 0 mm 7 mps 751 mmHg 62%
14:00 +4°C° 0 mm 6 mps 751 mmHg 63%
15:00 +4°C° 0 mm 6 mps 751 mmHg 63%
16:00 +4°C° 0 mm 6 mps 751 mmHg 64%
17:00 +5°C° 0.3 mm 5 mps 751 mmHg 71%
18:00 +3°C° 0.3 mm 5 mps 751 mmHg 78%
19:00 +3°C° 0.3 mm 4 mps 751 mmHg 86%
20:00 +1°C° 0 mm 4 mps 752 mmHg 87%
21:00 +1°C° 0 mm 3 mps 752 mmHg 88%
22:00 +1°C° 0 mm 3 mps 752 mmHg 89%
23:00 0°C° 0 mm 3 mps 752 mmHg 90%

23 Abril, Viernes

Tiempo Temperatura Precipitaciones Viento Presión Humedad
00:00 0°C° 0 mm 3 mps 752 mmHg 90%
01:00 0°C° 0 mm 3 mps 752 mmHg 91%
02:00 -2°C° 0 mm 4 mps 752 mmHg 92%
03:00 -2°C° 0 mm 4 mps 752 mmHg 93%
04:00 -2°C° 0 mm 4 mps 752 mmHg 94%
05:00 -1°C° 0.1 mm 5 mps 752 mmHg 92%
06:00 0°C° 0.1 mm 5 mps 753 mmHg 91%
07:00 +1°C° 0.1 mm 6 mps 753 mmHg 89%
08:00 0°C° 0.1 mm 7 mps 753 mmHg 87%
09:00 +2°C° 0.1 mm 7 mps 753 mmHg 84%
10:00 +2°C° 0.1 mm 7 mps 753 mmHg 82%
11:00 +2°C° 0.1 mm 7 mps 753 mmHg 83%
12:00 +2°C° 0.1 mm 7 mps 753 mmHg 84%
13:00 +2°C° 0.1 mm 7 mps 753 mmHg 85%
14:00 +3°C° 0.3 mm 7 mps 754 mmHg 76%
15:00 +4°C° 0.3 mm 7 mps 754 mmHg 67%
16:00 +5°C° 0.3 mm 7 mps 754 mmHg 58%
17:00 +4°C° 0 mm 6 mps 754 mmHg 58%
18:00 +2°C° 0 mm 5 mps 755 mmHg 57%
19:00 +1°C° 0 mm 4 mps 755 mmHg 57%
20:00 +1°C° 0 mm 3 mps 756 mmHg 58%
21:00 0°C° 0 mm 3 mps 756 mmHg 59%
22:00 -1°C° 0 mm 3 mps 756 mmHg 60%
23:00 -1°C° 0 mm 3 mps 756 mmHg 61%

24 Abril, Sábado

Tiempo Temperatura Precipitaciones Viento Presión Humedad
00:00 -1°C° 0 mm 3 mps 756 mmHg 63%
01:00 -1°C° 0 mm 3 mps 756 mmHg 64%
02:00 -1°C° 0 mm 3 mps 756 mmHg 69%
03:00 -2°C° 0 mm 3 mps 755 mmHg 74%
04:00 -2°C° 0 mm 3 mps 755 mmHg 79%
05:00 0°C° 0 mm 3 mps 755 mmHg 75%
06:00 0°C° 0 mm 4 mps 755 mmHg 70%
07:00 +3°C° 0 mm 4 mps 755 mmHg 66%
08:00 +3°C° 0 mm 5 mps 755 mmHg 66%
09:00 +4°C° 0 mm 6 mps 754 mmHg 66%
10:00 +5°C° 0 mm 6 mps 754 mmHg 66%
11:00 +5°C° 0 mm 6 mps 754 mmHg 65%
12:00 +5°C° 0 mm 6 mps 754 mmHg 65%
13:00 +5°C° 0 mm 6 mps 754 mmHg 64%
14:00 +5°C° 0 mm 6 mps 754 mmHg 65%
15:00 +5°C° 0 mm 6 mps 754 mmHg 67%
16:00 +5°C° 0 mm 6 mps 754 mmHg 68%
17:00 +5°C° 0 mm 5 mps 754 mmHg 73%
18:00 +4°C° 0 mm 4 mps 754 mmHg 78%
19:00 +3°C° 0 mm 3 mps 754 mmHg 83%
20:00 +2°C° 0 mm 3 mps 754 mmHg 85%
21:00 +2°C° 0 mm 3 mps 754 mmHg 88%
22:00 +1°C° 0 mm 3 mps 754 mmHg 91%
23:00 +1°C° 0 mm 3 mps 754 mmHg 90%

25 Abril, Domingo

Tiempo Temperatura Precipitaciones Viento Presión Humedad
00:00 +1°C° 0 mm 3 mps 754 mmHg 90%
01:00 +2°C° 0 mm 3 mps 753 mmHg 89%
02:00 +1°C° 0 mm 3 mps 753 mmHg 87%
03:00 -1°C° 0 mm 3 mps 753 mmHg 85%
04:00 -2°C° 0 mm 3 mps 753 mmHg 83%
05:00 -2°C° 0 mm 4 mps 753 mmHg 78%
06:00 0°C° 0 mm 5 mps 753 mmHg 74%
07:00 +1°C° 0 mm 5 mps 753 mmHg 69%
08:00 +2°C° 0 mm 6 mps 753 mmHg 62%
09:00 +4°C° 0 mm 7 mps 753 mmHg 54%
10:00 +5°C° 0 mm 7 mps 753 mmHg 47%
11:00 +6°C° 0.1 mm 7 mps 753 mmHg 48%
12:00 +6°C° 0.1 mm 7 mps 753 mmHg 49%
13:00 +6°C° 0.1 mm 7 mps 753 mmHg 50%
14:00 +6°C° 0.1 mm 7 mps 753 mmHg 51%
15:00 +6°C° 0.1 mm 7 mps 753 mmHg 52%
16:00 +6°C° 0.1 mm 7 mps 753 mmHg 53%
17:00 +6°C° 0.1 mm 5 mps 753 mmHg 58%
18:00 +4°C° 0.1 mm 4 mps 753 mmHg 63%
19:00 +3°C° 0.1 mm 3 mps 753 mmHg 68%
20:00 +2°C° 0 mm 3 mps 753 mmHg 69%
21:00 +1°C° 0 mm 3 mps 753 mmHg 71%
22:00 +2°C° 0 mm 2 mps 753 mmHg 72%
23:00 0°C° 0 mm 3 mps 753 mmHg 74%
Mostrar más

Necesitamos Su Consentimiento

Meteoprog y nuestros Proveedores de Servicios pueden almacenar y acceder a sus datos personales como cookies, identificadores de dispositivo u otras tecnologías similares de su dispositivo y procesar dichos datos para personalizar contenido y anuncios, además de ofrecer funciones de redes sociales y analizar el tráfico.

  • Almacenar y/o acceder a información en su dispositivo

    Se puede almacenar o acceder a cookies, identificadores de dispositivo u otra información de su dispositivo para los fines anteriormente indicados.

  • Anuncios y contenido personalizados, medición de anuncios y contenido, percepciones del público, y desarrollo de productos

    Los anuncios y el contenido pueden personalizarse en base a su perfil. Se pueden añadir más datos para personalizar mejor los anuncios y contenidos. Se puede medir el rendimiento de los anuncios y contenidos. Se puede obtener la percepción sobre el público que ha visto los anuncios y contenidos. Dichos datos pueden usarse para desarrollar o mejorar la experiencia del usuario, sistemas y software.

Al hacer clic en ‘Estoy De Acuerdo’ usted permitirá el uso de las cookies, identificadores de dispositivo, balizas web u otras tecnologías similares indicadas. Su configuración puede cambiarse desde el navegador de su dispositivo.

Para ciertos fines, los intereses legítimos pueden ser considerados por encima del consentimiento. Puede leer más sobre ello en nuestra Política de Privacidad y Cookies.